Location: Berkeley
(37.8716°N, 122.2727°W)
Time: 17:10:06
(UTC-07:00)

BlueWalker 3 - Pass Details

Date: 16 May 2026
Orbit: 447 x 456 km, 53.2° (Epoch: 10 June)

Event Time Altitude Azimuth Distance (km) Brightness Sun altitude
Exits shadow 01:27:21 11° 17° (NNE) 1,498 5.1 -32.8°
Drops below altitude 10° 01:27:36 10° 20° (NNE) 1,573 5.2 -32.8°
Sets 01:30:08 0° 38° (NE) 2,447 6.2 -32.7°
